Regional Weather Roundup
Issued by NWS

Home | Current Version | Previous Version | Graphics & Text | Print | Product List | Glossary On
Versions: 1 2 3 4 5 6 7 8 9 10 11 12 13 14 15 16 17 18 19 20 21 22 23 24 25 26 27 28 29 30 31 32 33 34 35 36 37 38 39 40 41 42 43 44 45 46 47 48 49 50
000
ASUS43 KFSD 270310
RWRSD

WEATHER ROUNDUP FOR SOUTH DAKOTA
NATIONAL WEATHER SERVICE SIOUX FALLS SD
900 PM CST FRI DEC 26 2014

NOTE: "FAIR" INDICATES FEW OR NO CLOUDS BELOW 12,000 FEET WITH NO
SIGNIFICANT WEATHER AND/OR OBSTRUCTIONS TO VISIBILITY.


SDZ001>005-009-010-012>017-270400-
NORTHWEST AND NORTH CENTRAL SOUTH DAKOTA

CITY           SKY/WX    TMP DP  RH WIND       PRES   REMARKS
BUFFALO          N/A     15  10  80 W5        30.04R WCI   8
FAITH            N/A     11   6  81 W7        30.13S WCI   0
MOBRIDGE       MOCLDY     8   5  87 CALM      30.16R
$$

SDZ012>016-024>037-041>051-057-063-072>074-270400-
SOUTHWEST AND SOUTH CENTRAL SOUTH DAKOTA

CITY           SKY/WX    TMP DP  RH WIND       PRES   REMARKS
RAPID CTY ARPT CLOUDY    17  13  84 CALM      30.12S
PIERRE         PTCLDY    12   8  84 NE6       30.17S WCI   3
CUSTER         MOCLDY    10   6  84 SW3       29.96S
ELLSWORTH AFB  CLOUDY    17  14  85 W2        30.11S
PHILIP         PTCLDY     7   3  84 W7        30.16F WCI  -5
PINE RIDGE     CLOUDY    17  11  77 N6        30.12R WCI   9
SPEARFISH      MOCLDY    16  14  93 CALM      30.08S
WINNER         LGT SNOW  19  14  81 N15       30.14F WCI   5
$$

SDZ004>011-016>023-039-040-270400-
NORTHEAST SOUTH DAKOTA

CITY           SKY/WX    TMP DP  RH WIND       PRES   REMARKS
ABERDEEN       CLOUDY    14   9  80 N15       30.21S WCI  -1
WATERTOWN      LGT SNOW  19  16  88 N9        30.10F FOG     WCI   8
SISSETON         N/A     19  16  88 N14       30.17F WCI   6
$$

SDZ017-020-022-023-036>040-048>070-270400-
SOUTHEAST SOUTH DAKOTA

CITY           SKY/WX    TMP DP  RH WIND       PRES   REMARKS
SIOUX FALLS    LGT SNOW  23  20  88 N12       30.08S FOG     WCI  12
HURON          CLOUDY    19  15  84 N15       30.17R WCI   5
CHAMBERLAIN    CLOUDY    18  13  81 N12       30.16F WCI   6
MITCHELL       LGT SNOW  22  20  92 N15       30.16R FOG     WCI   9
YANKTON        FAIR      23  19  86 N12       30.11F WCI  12
$$

ABBREVIATIONS USED IN REMARKS
   TC - TEMPERATURE IN CELSIUS
  WCI - WIND CHILL INDEX
   HX - HEAT INDEX
  VSB - VISIBILITY




USA.gov is the U.S. government's official web portal to all federal, state and local government web resources and services.